Starlink 32426

operational
NORAD ID: 61681 Int'l Des: 2024-193 Owner: SPXS Country: US Constellation: starlink
LEOCIRCULAR

Über Starlink 32426

Beschreibung wird geladen...

Live-Position

3D-Globus wird geladen...

Nächste Überflüge

Höhenverlauf

Altitude vs Time

uPlot chart will show altitude changes over time

Zweizeiliger Elementsatz

1 61681U 24193W 25352.70791603 .00000408 00000-0 25915-4 0 9999
2 61681 53.1606 107.4633 0001142 91.6796 268.4335 15.30192929 64120
Epoch: 18. Dez. 2025 • Age: 42 hours

Aktueller Status

Höhe 475.4 km
Geschwindigkeit 7.63 km/s
Subsatellitenpunkt 18.71°N, 146.68°W
Startdatum 26. Okt. 2024
Alter 1.1 years
Typ internet

Technische Details

Klassifizierung Payload
Masse 730.00 kg
Trockenmasse 700.00 kg
Gesamtmasse 730.00 kg
Länge 0.30 m
Durchmesser 4.10 m
Spannweite 29.00 m
Form Box + pan
Hersteller SPXS
Bus-Typ Starlink V2M
Phasenstatus In Orbit
Besitzer/Staat SPXS/US

Große Konstellationen

Loading constellations...